Location: Peebles
(55.6412°N, 3.1714°W)
Time: 16:11:57
(UTC+01:00)

H-2A R/B - Pass Details

Date: 26 September 2021
Orbit: 734 x 836 km, 98.2° (Epoch: 17 October)

Event Time Altitude Azimuth Distance (km) Brightness Sun altitude
Rises 19:50:48 0° 187° (S) 3,212 5.2 -7.9°
Reaches altitude 10° 19:53:12 10° 195° (SSW) 2,305 4.6 -8.2°
Maximum altitude 19:57:58 39° 264° (W) 1,156 3.6 -8.9°
Drops below altitude 10° 20:02:54 10° 333° (NNW) 2,384 5.1 -9.6°
Sets 20:05:26 0° 342° (NNW) 3,336 5.8 -9.9°
